• în România
  • Lista ţărilor
  • Pe 7 zile
  • Temperatura apei
  • Hartă satelitară
  • Meteo pe hartă
  • Widget-uri
  • user-avatar
    Intrare

    Meteo pe oră la Trujillo

    Astăzi, 14 August, Marţi

    Timp Temperatura Precipitaţii Vânt Presiune Umiditate
    00:00 +19°C° 0,4 mm 1 m/s 647 mmHg 84%
    01:00 +19°C° 0,4 mm 1 m/s 647 mmHg 82%
    02:00 +19°C° 0,2 mm 1 m/s 647 mmHg 81%
    03:00 +18°C° 0,2 mm 1 m/s 647 mmHg 81%
    04:00 +18°C° 0,2 mm 1 m/s 647 mmHg 80%
    05:00 +19°C° 0,3 mm 1 m/s 647 mmHg 78%
    06:00 +20°C° 0,3 mm 1 m/s 647 mmHg 76%
    07:00 +21°C° 0,3 mm 1 m/s 648 mmHg 75%
    08:00 +22°C° 0,6 mm 1 m/s 648 mmHg 72%
    09:00 +23°C° 0,6 mm 1 m/s 649 mmHg 70%
    10:00 +24°C° 0,6 mm 2 m/s 649 mmHg 67%
    11:00 +25°C° 1 mm 2 m/s 649 mmHg 66%
    12:00 +25°C° 1 mm 2 m/s 649 mmHg 65%
    13:00 +26°C° 1 mm 2 m/s 649 mmHg 64%
    14:00 +25°C° 1 mm 2 m/s 648 mmHg 66%
    15:00 +25°C° 1 mm 2 m/s 647 mmHg 67%
    16:00 +24°C° 1 mm 2 m/s 647 mmHg 69%
    17:00 +23°C° 1,2 mm 1 m/s 647 mmHg 75%
    18:00 +21°C° 1,2 mm 1 m/s 647 mmHg 80%
    19:00 +20°C° 1,2 mm 1 m/s 647 mmHg 85%
    20:00 +20°C° 0,6 mm 1 m/s 647 mmHg 85%
    21:00 +19°C° 0,6 mm 1 m/s 647 mmHg 85%
    22:00 +19°C° 0,6 mm 1 m/s 648 mmHg 85%
    23:00 +19°C° 0,4 mm 1 m/s 648 mmHg 84%

    Mâine, 15 August, Miercuri

    Timp Temperatura Precipitaţii Vânt Presiune Umiditate
    00:00 +19°C° 0,4 mm 1 m/s 648 mmHg 83%
    01:00 +19°C° 0,4 mm 1 m/s 647 mmHg 83%
    02:00 +18°C° 0,5 mm 1 m/s 647 mmHg 83%
    03:00 +18°C° 0,5 mm 1 m/s 647 mmHg 83%
    04:00 +18°C° 0,5 mm 1 m/s 647 mmHg 83%
    05:00 +18°C° 0,8 mm 1 m/s 647 mmHg 82%
    06:00 +18°C° 0,8 mm 1 m/s 648 mmHg 81%
    07:00 +19°C° 0,8 mm 1 m/s 648 mmHg 81%
    08:00 +20°C° 0,5 mm 1 m/s 649 mmHg 76%
    09:00 +21°C° 0,5 mm 1 m/s 649 mmHg 72%
    10:00 +22°C° 0,5 mm 1 m/s 650 mmHg 68%
    11:00 +24°C° 0,2 mm 1 m/s 650 mmHg 62%
    12:00 +25°C° 0,2 mm 1 m/s 650 mmHg 55%
    13:00 +27°C° 0,2 mm 1 m/s 650 mmHg 49%
    14:00 +27°C° 0,2 mm 2 m/s 649 mmHg 50%
    15:00 +26°C° 0,2 mm 2 m/s 649 mmHg 52%
    16:00 +26°C° 0,2 mm 2 m/s 648 mmHg 54%
    17:00 +24°C° 0,1 mm 2 m/s 648 mmHg 62%
    18:00 +22°C° 0,1 mm 1 m/s 648 mmHg 70%
    19:00 +20°C° 0,1 mm 1 m/s 648 mmHg 78%
    20:00 +20°C° 0,2 mm 1 m/s 648 mmHg 77%
    21:00 +19°C° 0,2 mm 1 m/s 649 mmHg 76%
    22:00 +19°C° 0,2 mm 1 m/s 649 mmHg 75%
    23:00 +19°C° 0,4 mm 1 m/s 649 mmHg 72%

    Poimâine, 16 August, Joi

    Timp Temperatura Precipitaţii Vânt Presiune Umiditate
    00:00 +19°C° 0,4 mm 1 m/s 649 mmHg 70%
    01:00 +18°C° 0,4 mm 1 m/s 648 mmHg 68%
    02:00 +18°C° 0,2 mm 1 m/s 648 mmHg 67%
    03:00 +18°C° 0,2 mm 1 m/s 648 mmHg 66%
    04:00 +18°C° 0,2 mm 1 m/s 648 mmHg 65%
    05:00 +19°C° 0,1 mm 1 m/s 649 mmHg 63%
    06:00 +20°C° 0,1 mm 1 m/s 649 mmHg 62%
    07:00 +21°C° 0,1 mm 1 m/s 650 mmHg 60%
    08:00 +23°C° 0 mm 1 m/s 651 mmHg 56%
    09:00 +25°C° 0 mm 2 m/s 652 mmHg 51%
    10:00 +27°C° 0 mm 2 m/s 652 mmHg 47%
    11:00 +28°C° 0,1 mm 2 m/s 652 mmHg 46%
    12:00 +28°C° 0,1 mm 2 m/s 652 mmHg 46%
    13:00 +28°C° 0,1 mm 2 m/s 651 mmHg 45%
    14:00 +27°C° 0,1 mm 2 m/s 650 mmHg 49%
    15:00 +26°C° 0,1 mm 2 m/s 650 mmHg 53%
    16:00 +25°C° 0,1 mm 1 m/s 649 mmHg 58%
    17:00 +24°C° 0,1 mm 1 m/s 649 mmHg 64%
    18:00 +22°C° 0,1 mm 1 m/s 649 mmHg 70%
    19:00 +20°C° 0,1 mm 1 m/s 649 mmHg 77%
    20:00 +20°C° 0 mm 1 m/s 649 mmHg 73%
    21:00 +20°C° 0 mm 1 m/s 649 mmHg 68%
    22:00 +19°C° 0 mm 1 m/s 650 mmHg 64%
    23:00 +19°C° 0 mm 1 m/s 649 mmHg 61%

    17 August, Vineri

    Timp Temperatura Precipitaţii Vânt Presiune Umiditate
    00:00 +19°C° 0 mm 1 m/s 649 mmHg 58%
    01:00 +19°C° 0 mm 1 m/s 648 mmHg 55%
    02:00 +18°C° 0 mm 1 m/s 648 mmHg 56%
    03:00 +18°C° 0 mm 1 m/s 648 mmHg 57%
    04:00 +18°C° 0 mm 1 m/s 648 mmHg 58%
    05:00 +19°C° 0 mm 1 m/s 649 mmHg 57%
    06:00 +20°C° 0 mm 1 m/s 649 mmHg 56%
    07:00 +21°C° 0 mm 1 m/s 650 mmHg 55%
    08:00 +24°C° 0 mm 1 m/s 651 mmHg 51%
    09:00 +26°C° 0 mm 2 m/s 651 mmHg 48%
    10:00 +29°C° 0 mm 2 m/s 652 mmHg 44%
    11:00 +29°C° 0 mm 2 m/s 652 mmHg 44%
    12:00 +29°C° 0 mm 2 m/s 651 mmHg 44%
    13:00 +30°C° 0 mm 3 m/s 650 mmHg 43%
    14:00 +29°C° 0,1 mm 2 m/s 650 mmHg 47%
    15:00 +28°C° 0,1 mm 2 m/s 649 mmHg 50%
    16:00 +27°C° 0,1 mm 2 m/s 649 mmHg 54%
    17:00 +25°C° 0,2 mm 2 m/s 648 mmHg 63%
    18:00 +23°C° 0,2 mm 1 m/s 648 mmHg 72%
    19:00 +21°C° 0,2 mm 1 m/s 648 mmHg 81%
    20:00 +21°C° 0,1 mm 1 m/s 648 mmHg 80%
    21:00 +20°C° 0,1 mm 1 m/s 649 mmHg 79%
    22:00 +20°C° 0,1 mm 1 m/s 649 mmHg 78%
    23:00 +20°C° 0 mm 1 m/s 649 mmHg 76%

    18 August, Sâmbătă

    Timp Temperatura Precipitaţii Vânt Presiune Umiditate
    00:00 +20°C° 0 mm 1 m/s 648 mmHg 73%
    01:00 +19°C° 0 mm 1 m/s 648 mmHg 71%
    02:00 +19°C° 0 mm 1 m/s 648 mmHg 70%
    03:00 +19°C° 0 mm 1 m/s 648 mmHg 69%
    04:00 +19°C° 0 mm 1 m/s 648 mmHg 68%
    05:00 +20°C° 0 mm 1 m/s 648 mmHg 67%
    06:00 +21°C° 0 mm 1 m/s 649 mmHg 65%
    07:00 +22°C° 0 mm 1 m/s 649 mmHg 64%
    08:00 +24°C° 0 mm 1 m/s 650 mmHg 58%
    09:00 +26°C° 0 mm 1 m/s 651 mmHg 53%
    10:00 +28°C° 0 mm 2 m/s 651 mmHg 47%
    11:00 +28°C° 0,1 mm 2 m/s 651 mmHg 48%
    12:00 +29°C° 0,1 mm 2 m/s 650 mmHg 48%
    13:00 +29°C° 0,1 mm 2 m/s 649 mmHg 48%
    14:00 +28°C° 0,2 mm 2 m/s 649 mmHg 53%
    15:00 +27°C° 0,2 mm 2 m/s 648 mmHg 58%
    16:00 +26°C° 0,2 mm 1 m/s 648 mmHg 62%
    17:00 +24°C° 0,3 mm 1 m/s 648 mmHg 70%
    18:00 +23°C° 0,3 mm 1 m/s 648 mmHg 77%
    19:00 +19°C° 0,3 mm 0 m/s 648 mmHg 85%
    20:00 +21°C° 0,1 mm 1 m/s 648 mmHg 84%
    21:00 +21°C° 0,1 mm 1 m/s 648 mmHg 84%
    22:00 +20°C° 0,1 mm 1 m/s 648 mmHg 84%
    23:00 +20°C° 0,3 mm 1 m/s 648 mmHg 82%

    19 August, Duminică

    Timp Temperatura Precipitaţii Vânt Presiune Umiditate
    00:00 +20°C° 0,3 mm 1 m/s 648 mmHg 81%
    01:00 +20°C° 0,3 mm 1 m/s 647 mmHg 80%
    02:00 +19°C° 0,2 mm 1 m/s 647 mmHg 78%
    03:00 +19°C° 0,2 mm 1 m/s 647 mmHg 77%
    04:00 +19°C° 0,2 mm 1 m/s 647 mmHg 75%
    05:00 +20°C° 0,2 mm 1 m/s 648 mmHg 74%
    06:00 +20°C° 0,2 mm 1 m/s 649 mmHg 72%
    07:00 +21°C° 0,2 mm 1 m/s 649 mmHg 71%
    08:00 +23°C° 0,2 mm 1 m/s 650 mmHg 66%
    09:00 +24°C° 0,2 mm 1 m/s 650 mmHg 61%
    10:00 +26°C° 0,2 mm 1 m/s 651 mmHg 56%
    11:00 +27°C° 0,3 mm 1 m/s 650 mmHg 55%
    12:00 +27°C° 0,3 mm 2 m/s 650 mmHg 54%
    13:00 +28°C° 0,3 mm 2 m/s 650 mmHg 53%
    14:00 +27°C° 0,7 mm 2 m/s 649 mmHg 58%
    15:00 +26°C° 0,7 mm 1 m/s 648 mmHg 63%
    16:00 +24°C° 0,7 mm 1 m/s 648 mmHg 68%
    17:00 +23°C° 0,7 mm 1 m/s 648 mmHg 73%
    18:00 +22°C° 0,7 mm 1 m/s 648 mmHg 77%
    19:00 +20°C° 0,7 mm 1 m/s 648 mmHg 82%
    20:00 +20°C° 0,6 mm 1 m/s 648 mmHg 81%
    21:00 +20°C° 0,6 mm 1 m/s 648 mmHg 79%
    22:00 +20°C° 0,6 mm 1 m/s 649 mmHg 78%
    23:00 +19°C° 0,3 mm 1 m/s 648 mmHg 77%
    Arată mai mult